Flag for Portugal Weather past 2 weeks in Guimarães, Portugal

Now
52 °F

Cool.


Feels Like: 52 °F
Forecast: 38 / 54 °F
Wind: No wind

Location: Porto / Pedras Rubras

Current Time: Dec 27, 2014 at 1:10:22 PM

Latest Report: Dec 27, 2014 at 12:00 PM


Visibility: N/A

Pressure: 30.43 "Hg

Humidity: 75%

Dew point: 44 °F

Location of GuimarãesLocation

Historic Weather in Guimarães — Graph

°F

Guimarães temperature yesterday

Maximum temperature yesterday: 59 °F (at 1:00 PM)
Minimum temperature yesterday: 43 °F (at 4:00 AM)
Average temperature yesterday: 49 °F

Past Weeks' High & Low Weather Summary

 TemperatureHumidityPressure
High61 °F (Dec 21, 2:00 PM)93% (Dec 16, 3:00 AM)30.61 "Hg (Dec 16, 3:00 AM)
Low39 °F (Dec 27, 7:00 AM)50% (Dec 21, 2:00 PM)29.72 "Hg (Dec 13, 2:00 AM)
Average50 °F76%30.34 "Hg
* Reported Dec 12 11:00 AM — Dec 27 11:00 AM, Guimarães, Weather by CustomWeather, © 2014

Note: Actual official high and low records may vary slightly from our data, if they occured in-between our weather recording intervals... More about our weather records

Advertising

Guimarães weather history for previous 24 hours

 ConditionsComfort  
Time TempWeatherWind HumidityBarometerVisibility
11:00 AM
Dec 27
47 °FCool.3 mph83%30.47 "HgN/A
10:00 AM43 °FQuite cool.3 mph88%30.48 "HgN/A
9:00 AM41 °FQuite cool.2 mph90%30.46 "HgN/A
8:00 AM40 °FChilly.3 mph90%30.45 "HgN/A
7:00 AM39 °FChilly.3 mph91%30.45 "HgN/A
6:00 AM40 °FChilly.2 mph90%30.45 "HgN/A
5:00 AM40 °FQuite cool.2 mph90%30.46 "HgN/A
4:00 AM41 °FQuite cool.2 mph90%30.45 "HgN/A
3:00 AM42 °FQuite cool.2 mph90%30.46 "HgN/A
2:00 AM43 °FQuite cool.1 mph90%30.46 "HgN/A
1:00 AM44 °FQuite cool.3 mph89%30.47 "HgN/A
12:00 AM43 °FQuite cool.2 mph88%30.51 "HgN/A
11:00 PM
Dec 26
47 °FCool.2 mph89%30.52 "HgN/A
10:00 PM46 °FCool.2 mph88%30.51 "HgN/A
9:00 PM47 °FCool.2 mph88%30.50 "HgN/A
8:00 PM47 °FCool.3 mph88%30.50 "HgN/A
7:00 PM48 °FCool.2 mph87%30.50 "HgN/A
6:00 PM50 °FCool.No wind85%30.49 "HgN/A
5:00 PM53 °FCool.No wind77%30.50 "HgN/A
4:00 PM54 °FCool.3 mph69%30.50 "HgN/A
3:00 PM55 °FCool.5 mph67%30.50 "HgN/A
2:00 PM58 °FRefreshingly cool.2 mph58%30.51 "HgN/A
1:00 PM59 °FRefreshingly cool.1 mph51%30.53 "HgN/A
Weather by CustomWeather, © 2014

See weather overviewHow to use our weather pages